TimeEDT,TemperatureF,Dew PointF,Humidity,Sea Level PressureIn,VisibilityMPH,Wind Direction,Wind SpeedMPH,Gust SpeedMPH,PrecipitationIn,Events,Conditions,WindDirDegrees,DateUTC
12:53 AM,71.1,68.0,90,30.17,10.0,WNW,4.6,-,N/A,,Clear,300,2012-10-05 04:53:00
1:53 AM,70.0,66.9,90,30.16,10.0,NW,4.6,-,N/A,,Clear,310,2012-10-05 05:53:00
2:53 AM,69.1,66.0,90,30.14,10.0,NNW,3.5,-,N/A,,Clear,330,2012-10-05 06:53:00
3:53 AM,69.1,66.0,90,30.14,10.0,NNW,4.6,-,N/A,,Clear,330,2012-10-05 07:53:00
4:53 AM,68.0,64.9,90,30.14,10.0,Calm,Calm,-,N/A,,Clear,0,2012-10-05 08:53:00
5:53 AM,68.0,64.9,90,30.15,10.0,Calm,Calm,-,N/A,,Clear,0,2012-10-05 09:53:00
6:53 AM,66.9,64.9,93,30.15,10.0,Calm,Calm,-,N/A,,Clear,0,2012-10-05 10:53:00
7:53 AM,66.9,64.9,93,30.15,10.0,Calm,Calm,-,N/A,,Clear,0,2012-10-05 11:53:00
8:53 AM,70.0,66.0,87,30.15,10.0,NNW,5.8,-,N/A,,Clear,340,2012-10-05 12:53:00
9:53 AM,73.0,64.0,73,30.15,10.0,North,6.9,-,N/A,,Clear,10,2012-10-05 13:53:00
10:53 AM,77.0,63.0,62,30.14,10.0,NNE,3.5,-,N/A,,Clear,20,2012-10-05 14:53:00
11:53 AM,80.1,59.0,48,30.13,10.0,NNE,8.1,-,N/A,,Clear,20,2012-10-05 15:53:00
12:53 PM,82.4,55.4,39,30.11,10.0,North,6.9,-,N/A,,Clear,10,2012-10-05 16:53:00
1:53 PM,82.9,55.9,39,30.10,10.0,NNE,6.9,-,N/A,,Clear,20,2012-10-05 17:53:00
2:53 PM,82.9,55.9,39,30.08,10.0,North,5.8,-,N/A,,Clear,350,2012-10-05 18:53:00
3:53 PM,82.9,55.0,38,30.06,10.0,NNW,5.8,-,N/A,,Clear,340,2012-10-05 19:53:00
4:53 PM,82.0,55.0,39,30.05,10.0,North,5.8,-,N/A,,Clear,350,2012-10-05 20:53:00
5:53 PM,78.1,60.1,54,30.04,10.0,SSE,4.6,-,N/A,,Clear,160,2012-10-05 21:53:00
6:53 PM,73.0,63.0,71,30.04,10.0,SSE,4.6,-,N/A,,Clear,150,2012-10-05 22:53:00
7:53 PM,70.0,63.0,78,30.04,10.0,Calm,Calm,-,N/A,,Clear,0,2012-10-05 23:53:00
8:53 PM,66.9,63.0,87,30.04,10.0,Calm,Calm,-,N/A,,Clear,0,2012-10-06 00:53:00
9:53 PM,66.0,63.0,90,30.04,10.0,Calm,Calm,-,N/A,,Clear,0,2012-10-06 01:53:00
10:53 PM,66.0,62.1,87,30.04,10.0,Calm,Calm,-,N/A,,Clear,0,2012-10-06 02:53:00
11:53 PM,64.0,62.1,93,30.04,10.0,Calm,Calm,-,N/A,,Clear,0,2012-10-06 03:53:00